Showing default

SUPERVIEW NEO-1 04, 63126

Orbit data source: Space-Track

SUPERVIEW NEO-1 04, 63126 is a payload satellite owned by Siwei (CN) in SSO that was launched on Thu, 27 Feb 2025 UTC via a CHANG ZHENG 2C launch vehicle from the Jiuquan Satellite Launch Center, China (JSC). Payload-class satellites include a variety of spacecraft equipped with specific instruments for various scientific and technological missions. These include communications satellites like Starlink; space stations such as the ISS; scientific satellites like the Hubble; Earth observation satellites from companies like Planet Labs, Umbra, and HawkEye 360; GPS; miniature CubeSats for education and research; and military/defense satellites.

Loading next visibility...
Identifier
63126, 2025-040B
Orbit
SSO
Country
Flag of CNCN / PRC
Related business
Manufacturer
SAST
Mission
Operational Commercial Imaging
Bus & Motor
SIWEI, Unknown motor
Mass
540 kg wet, ~500 kg dry
Launch date (UTC)
2025-02-27 (1 year ago)
Launch vehicle
CHANG ZHENG 2C
Launch site
Jiuquan Satellite Launch Center, China (JSC)
Object type
Payload
Rocket body
Debris
Shape & HBR
Box, 4.4 m
Radar Cross Section
0.375 m², Large (>1 m²)

Expand to show TLE details & history
Last TLE update: 5 hours ago

TLE from 5 hours ago
0 SUPERVIEW NEO-1 04
1 63126U 25040B   26164.84834807  .00009435  00000-0  42090-3 0  9999
2 63126  97.3525 279.4439 0000215  76.8853 283.2407 15.21600884 71687
Epoch: 2026-06-13T20:21Z
TLE epoch observation values (Epoch: 2026-06-13T20:21:37.273Z)
Latitude
-0.00002°
Longitude
71.88105°
Altitude
504.071 km
Speed
7.612 km/s
True Right ascension
18h 37m 46s
True Declination
0° 00' 00"
Sunlit
Object was in full shadow at epoch
Visualization orbit readout
Latitude
Unknown
Longitude
Unknown
Altitude
Unknown
Speed
Unknown
Apparent Right ascension
Unknown
Apparent Declination
Unknown
Sunlit
N/A
Visualization observer readout
Local Sidereal Time
11:53:05
Azimuth
Unknown
Elevation
Unknown
Doppler factor
Unknown
Orbital elements
Apogee altitude
498.121 km
Perigee altitude
497.825 km
Semi-major axis
6,876.11 km
Eccentricity
0.00002
Inclination
97.3525°
RAAN
279.4439°
Arg. of periapsis
76.8853°
True anomaly
283.2383°
Mean anomaly
283.2407°
Eccentric anomaly
283.2395°
Mean motion
3.80653 °/min
Orbital period
94.57 mins
BSTAR
0.0004209
Loading maneuver chart data...
Computing Atmospheric mass density...
Loading historical data...
Loading historical data...
Loading historical data...
Loading historical data...
Loading historical data...
Loading historical data...
Loading historical data...
Other satellites on launch #40 in the year 2025 (2025-02-27 UTC)

Documentation

Showing up to 5 results
|